This is the latest recevied weather packets stored in our database for station/object DL9GJ-6. If no packets are shown the sender has not sent any weather packets the latest 10 day(s).
| Time | Temp. | Humidity | Pressure | Rain* | Wind** | Luminosity | Snow |
|---|---|---|---|---|---|---|---|
| 1777805065 | 22.78° C | 37% | 1013.5 hPa | 0 mm | - | 826 W/m² | - |
| 1777804704 | 22.78° C | 36% | 1013.5 hPa | 0 mm | - | 831 W/m² | - |
| 1777804345 | 22.78° C | 37% | 1013.6 hPa | 0 mm | - | 827 W/m² | - |
| 1777803985 | 22.78° C | 39% | 1013.6 hPa | 0 mm | - | 822 W/m² | - |
| 1777803972 | 22.78° C | 39% | 1013.6 hPa | 0 mm | - | 822 W/m² | - |
| 1777803625 | 22.22° C | 39% | 1013.7 hPa | 0 mm | - | 811 W/m² | - |
| 1777803611 | 22.22° C | 39% | 1013.7 hPa | 0 mm | - | 811 W/m² | - |
| 1777803264 | 22.22° C | 40% | 1013.8 hPa | 0 mm | - | 820 W/m² | - |
| 1777802904 | 22.22° C | 41% | 1014 hPa | 0 mm | - | 831 W/m² | - |
| 1777802545 | 21.67° C | 39% | 1014 hPa | 0 mm | - | 820 W/m² | - |
| 1777802530 | 21.67° C | 39% | 1014 hPa | 0 mm | - | 820 W/m² | - |
| 1777802185 | 21.67° C | 41% | 1014.1 hPa | 0 mm | - | 761 W/m² | - |
| 1777801824 | 21.67° C | 40% | 1014.1 hPa | 0 mm | - | 806 W/m² | - |
| 1777801463 | 21.67° C | 41% | 1014.3 hPa | 0 mm | - | 808 W/m² | - |
| 1777801451 | 21.67° C | 41% | 1014.3 hPa | 0 mm | - | 808 W/m² | - |
| 1777801103 | 21.11° C | 43% | 1014.4 hPa | 0 mm | - | 781 W/m² | - |
| 1777800743 | 21.11° C | 43% | 1014.4 hPa | 0 mm | - | 771 W/m² | - |
| 1777800735 | 21.11° C | 43% | 1014.4 hPa | 0 mm | - | 771 W/m² | - |
| 1777800383 | 21.11° C | 43% | 1014.5 hPa | 0 mm | - | 726 W/m² | - |
| 1777800372 | 21.11° C | 43% | 1014.5 hPa | 0 mm | - | 726 W/m² | - |
| 1777800023 | 20.56° C | 45% | 1014.5 hPa | 0 mm | - | 571 W/m² | - |
| 1777799664 | 20.56° C | 44% | 1014.5 hPa | 0 mm | - | 520 W/m² | - |
| 1777799305 | 20.56° C | 44% | 1014.6 hPa | 0 mm | - | 513 W/m² | - |
| 1777798944 | 20.56° C | 48% | 1014.6 hPa | 0 mm | - | 509 W/m² | - |
| 1777798584 | 20.56° C | 46% | 1014.6 hPa | 0 mm | - | 618 W/m² | - |
* Rain latest hour (hover to see other rain measurements)
** Current wind speed in m/s (hover to see current wind gust speed)